Погода в Кирсанове

Погода в Кирсанове : погода сейчас, прогноз погоды и архив. Всё, что Вы хотите узнать о погоде в Кирсанове!

Хотите узнать прогноз погоды в Кирсанове? Тогда Вам сюда: Погода в Кирсанове

Поиск расширенной информации на нашем сайте:

Другие новости

Новости СМИ2

Главная страница сайта

Новости сайта

03.07.2017

Напоминаем, что на нашем специализированном сайте Метеоцентр.Азия вы можете получить высокодетализированные автоматические прогнозы погоды по пунктам России, СНГ и мира в авиационном формате (включающие направление и скорость ветра, видимость, явления погоды, количество и форму облачности, нижнюю и верхнюю границу облачности).


Погода в Кирсанове - сегодня

Время (UTC), дата Ветер
(°,м/с) 
Видим.   Явления Облачность Т
(°С)
Тd
(°С)
f(%) Тe
(°С)
Pmin
(гПа)
dP
(гПа)
Po
(мм)
O2
(г/м3)
Тmin Tmax R s Состояние
почвы
18 19.04.18 070 (В) 4000 м  слаб. дождь{ливн. осадки}  10/10 300 м 
[Frnb|Ns]
+6.4 +5 91 +7  998.6  1.1  734  288           
21 19.04.18 070 (В) 4000 м  слаб. дождь  10/10 300 м 
[Frnb|Ns]
+6.6 +5.5 93 +6  999.2  0.6  734  288           
03 20.04.18 030 (СВ) 4000 м  слаб. морось  10/10 300 м 
[St]
+5.6 +4.2 91 +4  1000.3  0.8  735  289  +5.2      мокрая 
09 20.04.18 040 (СВ) 6-12  10 км    10/10 1000 м кучево-дожд. 
[Cb calv]
+9.7 +5.8 77 +8  1003.7  2.4  738  286           
18 20.04.18 330 (СЗ) 2-10  10 км    3/0 средняя 
[Ac trans]
+6.4 -0.1 63 +6  1009.7  1.7  742  292           
21 20.04.18 330 (СЗ) 10 км    ясно 
+3.8 -1.1 70 +3  1010.4  0.5  742  295           
00 21.04.18 040 (СВ) 10 км    ясно 
+0.5 -2.5 80 +1  1010.6  742  299           
06 21.04.18 190 (Ю) 10 км    8/0 средняя 
[Ac trans]
+5.7 -0.3 65 +5  1008.9  -1.7  741  293           
09 21.04.18 210 (ЮЗ) 10 км    8/0 средняя 
[Ac trans]
+12.8 +1.1 45 +12  1005.2  -3  739  284           
12 21.04.18 240 (ЮЗ) 10 км    10/0 средняя 
[Ac As]
+14.4 +1.3 41 +15  1001.1  -4  736  281           
18 21.04.18 210 (ЮЗ) 10 км    6/0 средняя 
[Ac trans]
+14.6 +2.5 44 +14  993.1  -3.8  730  279           
21 21.04.18 220 (ЮЗ) 4-12  10 км    10/10 600 м кучево-дожд. 
[Cb calv]
+11.1 +6.2 72 +10  989.9  -3.4  728  281           
03 22.04.18 280 (З) 4-11  10 км    3/3 1000 м кучево-дожд. 
[Cb calv]
+6.2 +0.9 69 +5  990.3  1.5  728  286  +5.9      влажная 
18 22.04.18 320 (СЗ) 4-10  10 км    6/4 600 м кучево-дожд., средняя 
[Cb calv|Ac trans]
+2.8 -3.8 62 +1  1000.8  2.4  735  294           
21 22.04.18 330 (СЗ) 10 км    10/10 600 м кучево-дожд. 
[Cb calv]
+1.8 -4 65 1002.6  1.6  736  295           
00 23.04.18 320 (СЗ) 10 км    10/10 600 м кучево-дожд. 
[Cb calv]
+0.6 -5.1 66 +1  1003.9  1.2  737  297           
06 23.04.18 300 (СЗ) 10 км    6/3 1000 м средняя, верхняя 
[Cu med, cong|Ac trans|Ci sp]
+2.8 -4.9 57 1005.5  1.1  739  295           
09 23.04.18 310 (СЗ) 6-12  10 км    8/6 1000 м кучево-дожд., средняя 
[Cb calv|Ac trans]
+5 -9.9 33 +2  1005.7  0.4  739  293           
18 23.04.18 300 (СЗ) 3-10  10 км    ясно 
+2.7 -10 39 +1  1010  2.1  742  297           
21 23.04.18 280 (З) 10 км    ясно 
+1.3 -8.9 47 +1  1010.5  0.5  742  298           
00 24.04.18 290 (З) 10 км    ясно 
-0.2 -0.8 96 -1  1011.3  0.6  743  300           
06 24.04.18 300 (СЗ) 10 км    ясно 
+5.7 -8.1 36 +4  1013.6  1.7  745  295           
09 24.04.18 300 (СЗ) 4-10  10 км    4/4 1000 м 
[Cu hum]
+8.5 -8.6 29 +7  1013.2  -0.3  744  292           
18 24.04.18 тихо ()   10 км    4/0 верхняя 
[Ci sp]
+4.8 -6.8 43 +5  1012.2  0.5  744  295           
21 24.04.18 тихо ()   10 км    4/0 верхняя 
[Ci sp]
+0.9 -5.1 64 +1  1012.5  744  299           
Время (UTC), дата Ветер
(°,м/с) 
Видим.   Явления Облачность Т
(°С)
Тd
(°С)
f(%) Тe
(°С)
Pmin
(гПа)
dP
(гПа)
Po
(мм)
O2
(г/м3)
Тmin Tmax R s Состояние
почвы

Для получения пояснительной информации подведите курсор к названию столбца.

ПОГОДА в Кирсанове - архив

Всё, что Вы хотите узнать о погоде в Кирсанове - удобно и подробно!

Выберите нужную дату (начиная с 1 января 2015* года) и нажмите кнопку "Найти".
Будут отображены архивные сводки погоды по пункту Кирсанов, начиная с указанной даты.


Отображать данные в формате CSV (для использования в таблицах Excel)


Внимание! Наш архив погоды предназначен исключительно для личного некоммерческого использования в познавательных целях. Если Вам необходимы официальные справки о состоянии погоды (для производственных, юридических, коммерческих и т.п. целей), обращайтесь в органы Росгидромета.

*Примечание: данная дата относится к архиву по метеостанциям СССР (Россия, СНГ, Балтия).
Архив по метеостанциям Зарубежной Европы и Азии (кроме Китая) хранится 10 дней, по другим регионам земного шара (Китай, Африка, Америка, Австралия, Океания) - 1 день.

Кирсанов - район местоположения метеостанции


Название, широта, долгота, высота метеостанции:
Кирсанов 52.7°ш. 42.7°д. 169 м над ур. моря [Российская Федерация]

Дополнительная информация

В oтличие oт бoльшинства пoгoдных сайтoв мы публикуем пoдрoбную метеoинфoрмацию в детальнoм прoфессиoнальнoм фoрмате.

Характеристики температуры и влажнoсти вoздуха измеряются на высoте 2 м в тени вдали oт зданий и деревьев.
Скoрoсть ветра измеряется на высoте 10 м (на урoвне рoста челoвека скoрoсть ветра ниже в 1.5-2 раза). Если метеoстанция нахoдится в гoрoде или в лесу, тo скoрoсть ветра занижена на 2-4 м/с пo сравнению с oткрытым местoм. Скoрoсть ветра над акватoриями крупных рек и oзёр, а также на вершинах хoлмoв на 2-5 м/с выше, чем в oбычных услoвиях.
Атмoсфернoе давление в разных тoчках местнoсти мoжет значительнo oтличаться oт давления на метеoстанции, в зависимoсти oт услoвий рельефа (при пoдъёме на 10 м давление пoнижается примернo на 1 мм рт.ст.).